Tracking 28790 objects as of 19-Apr-2024
HD Live streaming from Space Station
objects crossing your sky now

COSMOS 1348

Track COSMOS 1348 now!
COSMOS 1348 is classified as:


NORAD ID: 13124
Int'l Code: 1982-029A
Perigee: 6,404.7 km
Apogee: 34,009.0 km
Inclination: 72.0 °
Period: 718.7 minutes
Semi major axis: 26577 km
RCS: 16.1516 m2 (large)
Launch date: April 7, 1982
Source: Commonwealth of Independent States (former USSR) (CIS)
Launch site: PLESETSK MISSILE AND SPACE COMPLEX (PKMTR)
Your satellite tracking list
Your tracking list is empty




NASA's NSSDC Master Catalog

Two Line Element Set (TLE):
1 13124U 82029A   24107.03711597 -.00000467  00000-0  00000-0 0  9997
2 13124  72.0064 175.0709 5193107 355.1090 357.2602  2.00365899307513
Source of the keplerian elements: AFSPC